{"data":{"norad_id":67391,"epoch":"2026-09-20T22:45:53.715168Z","epoch_age_seconds":61615,"freshness":"FRESH","line1":"1 67391U 26004AE  26263.94853837  .00001228  00000+0  63825-4 0  9994","line2":"2 67391  97.4619 261.4557 0005913  11.8480 348.2892 15.17931017 38275","mean_motion":15.17931017,"eccentricity":0.0005913,"inclination_deg":97.4619,"raan_deg":261.4557,"arg_perigee_deg":11.848,"mean_anomaly_deg":348.2892,"bstar":6.3825e-5,"rev_number":3827,"period_min":94.865971106248,"perigee_km":508.02037070676,"apogee_km":516.16875855509,"semimajor_km":6890.2315646309,"source":"CELESTRAK","updated_at":"2026-09-21T09:00:16.598996Z"}}